Overview Statistics Trail Chart Weather Telemetry Raw packets
 

This is the latest recevied weather packets stored in our database for station/object W5CDN. If no packets are shown the sender has not sent any weather packets the latest 10 day(s).

<< 20 21 22 23 24 25 26 >>
Time Temp. Humidity Pressure Rain* Wind** Luminosity Snow
1788287336 35° C 53% 1014.3 hPa 0 mm - - -
1788287036 36.11° C 50% 1014.5 hPa 0 mm - - -
1788286736 35.56° C 50% 1014.5 hPa 0 mm - - -
1788286436 35.56° C 48% 1014.4 hPa 0 mm - - -
1788286136 35° C 52% 1014.7 hPa 0 mm - - -
1788285836 35° C 51% 1014.7 hPa 0 mm - - -
1788285536 33.89° C 54% 1014.6 hPa 0 mm - - -
1788285236 33.89° C 54% 1015 hPa 0 mm - - -
1788284936 33.89° C 55% 1015.1 hPa 0 mm - - -
1788284636 34.44° C 53% 1015.1 hPa 0 mm - - -
1788284336 33.89° C 55% 1015.2 hPa 0 mm - - -
1788284036 33.33° C 56% 1015.1 hPa 0 mm - - -
1788283736 32.22° C 57% 1015.3 hPa 0 mm - - -
1788283436 32.78° C 58% 1015.6 hPa 0 mm - - -
1788283136 33.33° C 57% 1015.7 hPa 0 mm - - -
1788282836 33.89° C 56% 1015.7 hPa 0 mm - - -
1788282536 32.78° C 57% 1015.9 hPa 0 mm - - -
1788282236 33.89° C 57% 1015.7 hPa 0 mm - - -
1788281936 34.44° C 55% 1015.7 hPa 0 mm - - -
1788281636 32.78° C 56% 1016.1 hPa 0 mm - - -
1788281336 33.33° C 56% 1016.1 hPa 0 mm - - -
1788281036 34.44° C 54% 1016 hPa 0 mm - - -
1788280736 33.33° C 55% 1016.1 hPa 0 mm - - -
1788280436 33.89° C 55% 1016.3 hPa 0 mm - - -
1788280136 32.78° C 57% 1016 hPa 0 mm - - -

* Rain latest hour (hover to see other rain measurements)
** Current wind speed in m/s (hover to see current wind gust speed)